Таллахасси

США     30°26′33″N   84°17′13″W
В апреле 2022 года жителям России запретили посещать сайт meteo.paraplan.net по решению Генеральной прокуратуры. Аудитория сайта уменьшилась в 10 раз. Владельцы сайта не видят смысла в поддержке погодного сервера в таких условиях. Сайт будет закрыт в октябре.
темп.,
°C
ветер,
м/с
пор.,
м/с
влажн.,
%
обл.,
%
осадки,
мм/ч
давл.,
гПа
погр.,
м
29 сентября, чт
чт2923:00+21ссв71427100 0.0 10161004
02:00+19ссв71529100 0.0 1014840
05:00+18ссв7153215 0.0 1014930
08:00+17ссв716349 0.0 1014885
11:00+21ссв815340 0.0 1014946
14:00+24ссв812391 0.0 10131281
17:00+21ссв7134952 0.0 10121154
20:00+18ссв7155316 0.0 10141122
30 сентября, пт
пт3023:00+17ссв615660 0.0 1013973
02:00+17ссв614624 0.0 1012964
05:00+17с513650 0.0 1010831
08:00+17с512600 0.0 1011788
11:00+21с695023 0.0 1011985
14:00+25с68460 0.0 10101303
17:00+26с584530 0.0 10071644
20:00+22с495664 0.0 1009677
1 октября, сб
сб123:00+18с28720 0.0 1010259
02:00+17сз117754 0.0 100911
05:00+18зюз127113 0.0 101070
08:00+16зюз25800 0.0 1011109
11:00+24зюз35520 0.0 1012933
14:00+29з35340 0.0 10102019
17:00+29зсз34301 0.0 10092043
20:00+22зюз11500 0.0 101012
2 октября, вс
вс223:00+19зюз28550 0.0 1011155
02:00+18сз24610 0.0 101288
05:00+16ссз25740 0.0 1012107
08:00+15сз26810 0.0 1013145
11:00+23сз46510 0.0 1014842
14:00+28зсз46390 0.0 10121672
17:00+29сз353616 0.0 10112164
20:00+22ссз225711 0.0 101233
3 октября, пн
пн323:00+21с310590 0.0 1014281
02:00+18с277032 0.0 1013168
05:00+17с24765 0.0 101477
08:00+16ссз247898 0.0 101593
11:00+23сз235260 0.0 1016668
14:00+27зсз344029 0.0 10151986
17:00+28сз343937 0.0 10132060
20:00+23с5956100 0.0 1015474